Lid_Strength_Index
7 11 13 11 11 11 12 12 13 12 11 12 12 12 11 10 10 10 10 10 9 9 8 7 6 5 4 3 3 2 2 1 1 1 1 1 1 1 0 -0 -0 -0 1 0
9 12 9 9 10 11 12 12 13 12 11 12 12 12 10 10 10 10 9 9 9 8 8 7 7 7 6 5 4 3 2 2 1 1 1 1 1 1 0 0 0 1 1 1
11 10 8 9 12 12 13 13 13 13 12 12 14 14 12 11 10 9 9 10 10 10 9 8 8 8 7 7 7 5 4 2 2 1 1 1 1 1 1 1 1 1 1 1
10 9 10 10 11 11 14 11 12 12 14 17 14 19 14 12 11 11 10 10 11 11 9 9 9 8 7 6 6 6 7 5 4 2 2 2 2 3 1 1 0 0 1 1
12 11 11 11 11 10 12 11 12 12 14 15 16 17 16 13 13 11 11 10 9 9 9 9 8 7 6 6 6 6 7 7 6 3 2 2 2 2 1 1 1 1 1 1
11 9 10 10 10 10 10 12 12 13 14 19 16 16 17 14 13 12 11 10 9 9 9 8 8 7 7 6 6 5 8 8 6 4 3 2 3 3 3 2 2 1 1 1
11 11 10 10 12 11 12 13 18 19 20 19 16 17 15 13 12 11 11 10 9 9 9 8 8 8 7 7 6 5 4 5 6 4 3 2 3 3 2 2 2 2 2 2
14 16 12 10 11 13 13 13 17 21 20 19 17 19 15 12 11 11 10 9 9 9 9 9 8 8 8 7 7 6 5 4 3 3 3 3 3 3 2 2 2 2 2 2
14 14 11 10 11 11 13 15 13 17 20 19 17 15 13 12 12 12 11 9 9 9 9 9 9 8 8 8 8 7 7 6 4 2 2 3 3 3 3 2 2 3 3 3
12 16 12 12 10 11 12 11 16 16 22 23 18 18 16 14 13 12 11 10 10 9 9 9 9 9 8 8 8 8 7 7 7 7 7 6 6 5 5 5 6 5 5 5
11 12 14 12 13 13 13 14 13 13 15 19 20 18 15 13 11 12 11 9 10 9 9 9 9 9 9 9 9 9 9 9 9 8 8 8 8 8 8 8 8 8 7 7
11 12 16 14 12 11 12 12 12 16 17 17 16 17 12 12 10 10 9 9 9 9 9 9 9 9 10 10 10 11 10 10 9 9 10 10 9 9 10 10 10 10 9 9
11 14 18 16 14 12 13 12 11 12 14 17 19 18 11 11 10 9 10 9 9 9 9 9 9 10 10 10 11 11 11 10 10 10 10 11 11 11 11 11 11 11 11 11
9 12 14 16 15 14 15 14 13 13 16 16 16 15 13 12 11 10 10 10 10 10 10 10 10 11 11 11 11 11 11 11 11 11 11 12 12 12 12 12 12 12 12 12
10 15 14 13 13 13 15 14 13 14 13 15 14 14 13 12 11 10 10 10 10 10 10 11 11 12 12 12 12 11 12 11 12 12 12 12 12 12 12 12 12 13 13 13
9 16 14 16 13 13 16 14 13 13 13 13 14 15 12 10 10 10 10 10 10 10 10 10 10 11 12 12 12 12 13 12 12 13 13 13 13 13 13 13 13 13 13 13
11 14 15 18 14 15 17 15 13 13 12 13 15 13 12 12 11 10 10 9 9 10 10 11 12 12 12 13 12 13 12 12 13 13 14 14 14 14 14 14 14 14 14 14
13 14 14 17 17 20 15 13 11 12 12 11 11 12 10 10 9 9 9 9 10 10 11 12 12 12 12 12 12 12 12 13 14 14 15 14 14 15 14 14 14 15 14 14
11 13 16 17 18 16 15 15 14 14 14 11 11 11 10 10 11 12 10 9 10 11 11 12 12 11 12 12 12 13 13 14 14 14 15 15 15 16 16 18 15 15 16 16
12 12 13 16 19 20 16 14 11 11 16 12 10 11 11 12 14 12 11 10 11 11 11 12 12 12 12 13 13 14 14 14 15 15 15 15 16 18 18 16 17 16 17 14
15 15 16 16 17 17 16 14 12 18 16 16 12 11 12 13 11 12 11 12 11 11 12 11 12 13 14 14 14 14 15 15 15 16 16 16 16 18 18 17 17 18 17 15
17 18 17 16 19 22 14 14 15 13 14 14 12 11 12 12 12 12 12 12 12 13 12 13 14 15 15 14 14 15 16 16 17 18 18 19 20 18 17 21 20 19 18 15
17 15 16 15 17 14 13 13 12 12 13 14 13 13 12 13 13 13 13 13 13 14 14 14 15 16 16 17 16 16 17 17 20 23 23 23 21 20 19 21 20 19 19 12
15 15 14 15 16 15 14 13 13 12 13 12 13 12 12 13 13 14 14 14 15 15 15 17 17 17 19 19 19 19 19 20 25 25 23 22 22 21 21 18 18 20 19 17
15 14 16 17 16 15 14 13 12 12 13 14 13 13 12 14 15 14 15 15 15 16 17 16 16 17 18 18 20 22 22 24 24 24 21 21 20 22 19 18 18 17 17 15
16 15 15 17 13 13 13 12 12 13 13 14 14 14 14 14 14 14 15 15 15 16 17 17 17 18 20 22 23 26 28 26 27 23 21 22 22 22 19 19 17 14 12 11